FW2422 Weather Reports


Display with metric or nautical units.
time (UTC)temp
F
wind
direction
speed
MPH
gust
MPH
rain 1hr
in
rain 24hr
in
rain mn
in
humidity
%
barometer
mb
20260905174524 97 22 0.0 3.0 0.00 0.00 0.00 43 1013.3
20260905173014 97 229 2.0 7.0 0.00 0.00 0.00 43 1013.5
20260905171515 97 87 1.0 3.0 0.00 0.00 0.00 44 1013.7
20260905170012 96 274 0.0 1.0 0.00 0.00 0.00 46 1013.9
20260905164511 95 96 0.0 3.0 0.00 0.00 0.00 48 1014.1
20260905163009 95 70 0.0 2.0 0.00 0.00 0.00 47 1014.1
20260905161506 93 57 0.0 4.0 0.00 0.00 0.00 52 1014.2
20260905160014 93 264 0.0 4.0 0.00 0.00 0.00 52 1014.1
20260905154503 92 32 0.0 1.0 0.00 0.00 0.00 55 1014.1
20260905153111 91 274 0.0 4.0 0.00 0.00 0.00 57 1014.1
20260905151559 90 200 1.0 4.0 0.00 0.00 0.00 59 1014.1
20260905150056 90 247 0.0 4.0 0.00 0.00 0.00 61 1013.8
20260905144552 89 266 0.0 4.0 0.00 0.00 0.00 62 1013.7
20260905143050 87 271 0.0 3.0 0.00 0.00 0.00 65 1013.8
20260905141558 87 269 0.0 3.0 0.00 0.00 0.00 65 1013.9
20260905140047 87 278 0.0 1.0 0.00 0.00 0.00 64 1013.8
20260905134549 88 115 0.0 1.0 0.00 0.00 0.00 64 1013.8
20260905133144 86 80 0.0 1.0 0.00 0.00 0.00 67 1013.5
20260905131540 84 126 0.0 0.0 0.00 0.00 0.00 71 1013.4
20260905130039 82 186 0.0 0.0 0.00 0.00 0.00 73 1013.2
20260905124538 80 158 1.0 3.0 0.00 0.00 0.00 76 1013.1
20260905123036 78 277 0.0 0.0 0.00 0.00 0.00 80 1013.1
20260905121536 77 277 0.0 0.0 0.00 0.00 0.00 80 1013.2
20260905120034 78 277 0.0 0.0 0.00 0.00 0.00 79 1013.0
20260905114532 78 277 0.0 0.0 0.00 0.00 0.00 78 1013.0
20260905113032 78 277 0.0 0.0 0.00 0.00 0.00 79 1013.0
20260905111531 78 277 0.0 0.0 0.00 0.00 0.00 78 1013.0
20260905110029 78 277 0.0 0.0 0.00 0.00 0.00 77 1013.0
20260905104535 79 277 0.0 0.0 0.00 0.00 0.00 76 1012.7
20260905103025 79 277 0.0 0.0 0.00 0.00 0.00 75 1012.8
20260905101522 80 277 0.0 0.0 0.00 0.00 0.00 73 1012.8
20260905100022 80 277 0.0 0.0 0.00 0.00 0.00 72 1012.6
20260905094522 81 277 0.0 1.0 0.00 0.00 0.00 72 1012.7
20260905093021 80 240 0.0 0.0 0.00 0.00 0.00 72 1012.6
20260905091518 81 240 0.0 1.0 0.00 0.00 0.00 72 1012.6
20260905090017 81 226 0.0 0.0 0.00 0.00 0.00 72 1012.6
20260905084518 81 226 0.0 1.0 0.00 0.00 0.00 73 1012.4
20260905083016 81 124 0.0 0.0 0.00 0.00 0.00 73 1012.2
20260905081513 81 124 0.0 0.0 0.00 0.00 0.00 71 1012.2
20260905080011 82 124 0.0 1.0 0.00 0.00 0.00 70 1012.1
20260905074510 82 160 0.0 0.0 0.00 0.00 0.00 70 1012.3
20260905073006 83 127 0.0 0.0 0.00 0.00 0.00 69 1012.5
20260905071504 83 127 0.0 0.0 0.00 0.00 0.00 69 1012.7
20260905070002 83 127 0.0 1.0 0.00 0.00 0.00 68 1012.7
20260905064503 84 127 0.0 2.0 0.00 0.00 0.00 67 1012.8
20260905063103 84 103 0.0 0.0 0.00 0.00 0.00 67 1012.8
20260905061558 84 103 0.0 1.0 0.00 0.00 0.00 66 1012.8
20260905060056 84 206 0.0 0.0 0.00 0.00 0.00 65 1012.8
20260905054554 85 266 0.0 1.0 0.00 0.00 0.00 64 1012.7
20260905053051 85 105 0.0 1.0 0.00 0.00 0.00 63 1012.5
20260905051550 86 171 0.0 3.0 0.00 0.00 0.00 62 1012.4
20260905050047 86 138 0.0 4.0 0.00 0.00 0.00 61 1012.4
20260905044545 87 225 1.0 4.0 0.00 0.00 0.00 60 1012.4
20260905043044 87 172 1.0 6.0 0.00 0.00 0.00 60 1012.4
20260905041544 87 206 1.0 6.0 0.00 0.00 0.00 59 1012.4
20260905040043 88 108 0.0 4.0 0.00 0.00 0.00 59 1012.5
20260905034543 88 171 1.0 5.0 0.00 0.00 0.00 58 1012.5
20260905033046 88 202 2.0 5.0 0.00 0.00 0.00 57 1012.5
20260905031550 89 155 0.0 3.0 0.00 0.00 0.00 55 1012.5
20260905030043 89 142 0.0 1.0 0.00 0.00 0.00 54 1012.4
20260905024541 90 160 0.0 4.0 0.00 0.00 0.00 53 1012.3
20260905023038 90 170 0.0 2.0 0.00 0.00 0.00 53 1012.1
20260905021537 90 79 1.0 4.0 0.00 0.00 0.00 52 1011.8
20260905020036 91 174 0.0 5.0 0.00 0.00 0.00 52 1011.6
20260905014536 91 93 0.0 5.0 0.00 0.00 0.00 51 1011.4
20260905013036 92 124 0.0 4.0 0.00 0.00 0.00 50 1011.3
20260905011542 92 176 1.0 5.0 0.00 0.00 0.00 49 1011.2
20260905010035 93 154 2.0 6.0 0.00 0.00 0.00 47 1010.9
20260905004534 94 179 2.0 7.0 0.00 0.00 0.00 46 1010.9
20260905003033 94 153 2.0 6.0 0.00 0.00 0.00 45 1010.8
20260905001536 96 120 3.0 7.0 0.00 0.00 0.00 43 1010.7
20260905000044 96 103 2.0 6.0 0.00 0.00 0.00 42 1010.6
20260904234537 97 110 1.0 6.0 0.00 0.00 0.00 41 1010.5
20260904233031 97 105 1.0 8.0 0.00 0.00 0.00 41 1010.5
20260904231529 97 62 2.0 6.0 0.00 0.00 0.00 41 1010.4
20260904230049 97 146 3.0 8.0 0.00 0.00 0.00 43 1010.6
20260904224528 95 234 1.0 10.0 0.00 0.00 0.00 45 1010.6
20260904223027 96 72 1.0 5.0 0.00 0.00 0.00 44 1010.7
20260904221526 97 129 3.0 7.0 0.00 0.00 0.00 43 1010.7
20260904220026 97 72 3.0 6.0 0.00 0.00 0.00 44 1010.8
20260904214524 98 193 3.0 11.0 0.00 0.00 0.00 43 1010.9
20260904213023 99 237 3.0 7.0 0.00 0.00 0.00 42 1011.0
20260904211521 99 115 3.0 7.0 0.00 0.00 0.00 41 1011.1
20260904210025 99 146 1.0 9.0 0.00 0.00 0.00 41 1011.2
20260904204514 98 179 3.0 6.0 0.00 0.00 0.00 42 1011.3
20260904203016 98 207 2.0 8.0 0.00 0.00 0.00 42 1011.6
20260904201510 96 82 1.0 7.0 0.00 0.00 0.00 43 1011.8
20260904200027 97 106 4.0 10.0 0.00 0.00 0.00 43 1012.1
20260904194507 98 70 4.0 9.0 0.00 0.00 0.00 42 1012.3
20260904184602 97 133 4.0 9.0 0.00 0.00 0.00 46 1012.8
20260904183040 96 118 1.0 8.0 0.00 0.00 0.00 45 1013.1
20260904181534 96 172 1.0 7.0 0.00 0.00 0.00 48 1013.3
20260904180030 96 155 0.0 5.0 0.00 0.00 0.00 48 1013.6